EA5CEE Santa Pola ES current weather conditions

sailwx.info

Wind from 250 at 2 knots gusting 3

Air temperature 11.7° C
Dewpoint 8.7° C

Last reported at 2017-Nov-19 07:59 UTC.
Time now 2017-Nov-19 08:45 UTC

Location: N 38°13' W 000°31'.
View on Google Maps.

See reports from other nearby stations

  
Tides and Currents Weather Stations Pressure Air Temp Water Temp Dewpoint Dewpoint Depression Visibility Wind Speed Wind Dir Waves Ship Positions
date/time (UTC)wind fromknots sea level pressurealtimeterstation pressurevisibilityair tempwater tempwave heightnotes
2017-Nov-19 07:59 250 2 gusting 3 11.7
2017-Nov-19 07:44 238 2 gusting 4 11.1
2017-Nov-19 07:29 256 3 gusting 4 11.7
2017-Nov-19 07:14 242 3 gusting 4 11.7
2017-Nov-19 06:59
2017-Nov-19 06:44
2017-Nov-19 06:29
2017-Nov-19 06:14
2017-Nov-19 05:58
2017-Nov-19 05:44
2017-Nov-19 05:28
2017-Nov-19 05:13
2017-Nov-19 04:58
2017-Nov-19 04:43
2017-Nov-19 04:28
2017-Nov-19 04:13
2017-Nov-19 03:58 288 2 gusting 4 12.2
2017-Nov-19 03:43 284 2 gusting 4 12.2
2017-Nov-19 03:35 278 2 gusting 3 12.2
2017-Nov-19 03:20 276 1 gusting 2 12.2
2017-Nov-19 02:58 276 1 gusting 2 12.2
2017-Nov-19 02:43 281 1 gusting 3 12.2
2017-Nov-19 02:28 282 0 gusting 2 12.8
2017-Nov-19 02:13 283 0 gusting 2 12.8
2017-Nov-19 01:58 285 1 gusting 1 12.8
2017-Nov-19 01:43 285 0 gusting 1 13.9
2017-Nov-19 01:28 285 0 gusting 0 14.4
2017-Nov-19 01:13 285 0 gusting 1 13.9
2017-Nov-19 00:58 285 1 gusting 2 14.4
2017-Nov-19 00:44 285 0 gusting 1 14.4
2017-Nov-19 00:27 285 0 gusting 1 14.4
2017-Nov-19 00:13 285 0 gusting 0 14.4
2017-Nov-18 23:57 285 0 gusting 0 14.4
2017-Nov-18 23:42 285 0 gusting 1 14.4
2017-Nov-18 23:27 285 1 gusting 1 15.0
2017-Nov-18 23:12 285 0 gusting 1 14.4
2017-Nov-18 22:57 285 0 gusting 2 14.4
2017-Nov-18 22:42 285 1 gusting 2 14.4
2017-Nov-18 22:27 285 1 gusting 2 14.4
2017-Nov-18 22:12 285 1 gusting 3 14.4
2017-Nov-18 21:57 285 1 gusting 3 14.4
2017-Nov-18 21:42 285 1 gusting 2 15.0
2017-Nov-18 21:27 285 2 gusting 3 15.0
2017-Nov-18 21:12 285 0 gusting 2 15.0
2017-Nov-18 20:57 285 0 gusting 1 15.0
2017-Nov-18 20:42 285 0 gusting 1 15.0
2017-Nov-18 20:27 285 0 gusting 1 15.0
2017-Nov-18 20:12 285 1 gusting 2 15.0
2017-Nov-18 19:57 285 1 gusting 2 15.6
2017-Nov-18 19:42 208 0 gusting 1 15.6
2017-Nov-18 19:27 208 0 gusting 0 15.6
2017-Nov-18 19:12 208 1 gusting 3 15.6
2017-Nov-18 18:57 208 1 gusting 2 15.6
2017-Nov-18 18:42 194 1 gusting 3 15.6
2017-Nov-18 18:27 205 2 gusting 3 15.6
2017-Nov-18 18:12 204 1 gusting 3 15.6
2017-Nov-18 17:57 197 1 gusting 4 15.6
2017-Nov-18 17:42 217 2 gusting 4 15.6
2017-Nov-18 17:27 186 1 gusting 3 15.6
2017-Nov-18 17:12 193 0 gusting 2 15.6
2017-Nov-18 16:57 158 0 gusting 3 16.1
2017-Nov-18 16:42 206 1 gusting 5 16.7
2017-Nov-18 16:27 204 1 gusting 6 17.2
2017-Nov-18 16:12 183 5 gusting 8 17.8
2017-Nov-18 15:57 132 4 gusting 9 17.8
2017-Nov-18 15:42 215 6 gusting 8 17.8
2017-Nov-18 15:27 181 5 gusting 10 17.8
2017-Nov-18 15:12 160 6 gusting 12 17.8
2017-Nov-18 14:57 224 5 gusting 10 17.8
2017-Nov-18 14:42 205 5 gusting 10 17.8
2017-Nov-18 14:27 203 3 gusting 12 18.3
2017-Nov-18 14:12 224 5 gusting 11 17.8
2017-Nov-18 13:57 211 4 gusting 12 18.3
2017-Nov-18 13:42 217 5 gusting 9 17.8
2017-Nov-18 13:27 226 5 gusting 7 18.3
2017-Nov-18 13:12 183 6 gusting 9 17.8
2017-Nov-18 12:57 167 6 gusting 9 17.8
2017-Nov-18 12:42 211 5 gusting 9 17.8
2017-Nov-18 12:27 244 6 gusting 8 17.8
2017-Nov-18 12:12 269 4 gusting 9 17.8
2017-Nov-18 11:57 226 6 gusting 9 17.2
2017-Nov-18 11:42 224 5 gusting 10 17.2
2017-Nov-18 11:27 238 4 gusting 8 16.7
2017-Nov-18 11:13 224 6 gusting 8 16.7
2017-Nov-18 10:56 246 5 gusting 8 16.7
2017-Nov-18 10:42 231 6 gusting 8 16.1
2017-Nov-18 10:26 221 4 gusting 7 15.6
2017-Nov-18 10:11 231 6 gusting 8 15.6
2017-Nov-18 09:56 224 4 gusting 6 15.0
2017-Nov-18 09:41 243 4 gusting 7 14.4
2017-Nov-18 09:26 243 5 gusting 7 13.3
2017-Nov-18 09:11 235 6 gusting 7 12.8
2017-Nov-18 08:56 257 5 gusting 6 12.8
2017-Nov-18 08:41 264 5 gusting 8 12.2
2017-Nov-18 08:26 248 6 gusting 9 11.7
2017-Nov-18 08:11 250 6 gusting 8 11.1
2017-Nov-18 07:56 257 5 gusting 7 10.6
2017-Nov-18 07:41 218 6 gusting 8 10.6
2017-Nov-18 07:26 253 6 gusting 8 10.0
2017-Nov-18 07:11 254 6 gusting 7 9.4
2017-Nov-18 06:56
2017-Nov-18 06:41
2017-Nov-18 06:26
2017-Nov-18 06:11
2017-Nov-18 05:56
2017-Nov-18 05:41
2017-Nov-18 05:26
2017-Nov-18 05:11
2017-Nov-18 04:56
2017-Nov-18 04:41 242 4 gusting 6 10.6
2017-Nov-18 04:25 249 5 gusting 6 10.6
2017-Nov-18 04:10 238 5 gusting 6 11.1
2017-Nov-18 03:55 256 5 gusting 6 11.1
2017-Nov-18 03:41 267 5 gusting 8 11.7
2017-Nov-18 03:32 271 6 gusting 9 11.1
2017-Nov-18 03:13 277 6 gusting 7 10.6
2017-Nov-18 02:55 239 5 gusting 7 11.1
2017-Nov-18 02:40 239 5 gusting 7 11.1
2017-Nov-18 02:25 250 4 gusting 5 11.7
2017-Nov-18 02:10 219 4 gusting 6 11.7
2017-Nov-18 01:55 246 4 gusting 5 11.7
2017-Nov-18 01:40 245 3 gusting 5 11.7
2017-Nov-18 01:25 259 2 gusting 4 12.2
2017-Nov-18 01:10 257 3 gusting 4 12.8
2017-Nov-18 00:55 257 2 gusting 3 12.2
2017-Nov-18 00:40 277 3 gusting 5 12.2
2017-Nov-18 00:25 268 1 gusting 2 12.8
2017-Nov-18 00:10 270 2 gusting 4 12.8
2017-Nov-17 23:55 257 2 gusting 3 12.8
2017-Nov-17 23:40 267 3 gusting 5 12.8
2017-Nov-17 23:25 253 2 gusting 4 12.8
2017-Nov-17 23:10 231 3 gusting 4 12.8
2017-Nov-17 22:55 225 3 gusting 4 13.3
2017-Nov-17 22:40 226 3 gusting 4 13.3
2017-Nov-17 22:24 214 3 gusting 4 13.3
2017-Nov-17 22:09 231 3 gusting 4 13.9
2017-Nov-17 21:54 229 3 gusting 4 13.9
2017-Nov-17 21:39 222 3 gusting 5 13.9
2017-Nov-17 21:25 219 3 gusting 5 13.9
2017-Nov-17 21:09 238 4 gusting 5 13.9
2017-Nov-17 20:54 232 3 gusting 4 13.9
2017-Nov-17 20:39 243 3 gusting 3 13.9
2017-Nov-17 20:24 252 2 gusting 4 13.9
2017-Nov-17 20:09 249 3 gusting 4 13.9
2017-Nov-17 19:54 224 2 gusting 4 13.9
2017-Nov-17 19:39 235 3 gusting 4 13.9
2017-Nov-17 19:25 195 3 gusting 5 14.4
2017-Nov-17 19:09 243 3 gusting 5 14.4
2017-Nov-17 18:54 235 4 gusting 6 14.4
2017-Nov-17 18:39 242 4 gusting 5 14.4
2017-Nov-17 18:24 228 4 gusting 6 15.0
2017-Nov-17 18:09 228 4 gusting 6 15.0
2017-Nov-17 17:54 226 4 gusting 6 15.0
2017-Nov-17 17:39 211 5 gusting 7 15.0
2017-Nov-17 17:24 210 4 gusting 7 15.6
2017-Nov-17 17:09 200 5 gusting 6 15.6
2017-Nov-17 16:54 217 4 gusting 7 15.6
2017-Nov-17 16:39 205 4 gusting 6 16.1
2017-Nov-17 16:24 215 4 gusting 7 16.7
2017-Nov-17 16:09 224 4 gusting 6 16.7
2017-Nov-17 15:54 217 3 gusting 6 17.2
2017-Nov-17 15:39 177 5 gusting 7 17.2
2017-Nov-17 15:24 217 4 gusting 7 17.2
2017-Nov-17 15:09 162 3 gusting 7 17.2
2017-Nov-17 14:54 186 3 gusting 6 17.2
2017-Nov-17 14:39 211 3 gusting 7 17.8
2017-Nov-17 14:24 184 4 gusting 6 17.8
2017-Nov-17 14:09 227 4 gusting 7 17.8
2017-Nov-17 13:54 193 4 gusting 6 17.8
2017-Nov-17 13:39 235 1 gusting 6 17.8
2017-Nov-17 13:24 151 0 gusting 6 17.8
2017-Nov-17 13:09 214 2 gusting 6 17.2
2017-Nov-17 12:54 205 3 gusting 7 17.8
2017-Nov-17 12:39 205 1 gusting 7 17.2
2017-Nov-17 12:24 201 3 gusting 7 17.2
2017-Nov-17 12:09 208 5 gusting 8 16.7
2017-Nov-17 11:54 174 6 gusting 9 16.7
2017-Nov-17 11:39 229 5 gusting 8 16.7
2017-Nov-17 11:24 226 3 gusting 6 16.7
2017-Nov-17 11:09 209 2 gusting 6 16.7
2017-Nov-17 10:54 273 1 gusting 3 16.1
2017-Nov-17 10:39 236 2 gusting 4 15.6
2017-Nov-17 10:24 270 1 gusting 3 15.0
2017-Nov-17 10:08 270 3 gusting 5 14.4
2017-Nov-17 09:53 274 4 gusting 6 13.9
2017-Nov-17 09:38 253 3 gusting 6 13.9
2017-Nov-17 09:23 263 3 gusting 6 13.3
2017-Nov-17 09:08 271 4 gusting 8 12.8
2017-Nov-17 08:53 254 4 gusting 7 12.2
2017-Nov-17 08:38 264 5 gusting 8 11.7
2017-Nov-17 08:23 246 5 gusting 7 11.1
2017-Nov-17 08:08 245 5 gusting 6 10.0